Location: Rounton
(54.4000°N, 1.3500°W)
Time: 03:43:02
(UTC+00:00)

S-56A Canister/Altair - Pass Details

Date: 05 December 2021
Orbit: 633 x 2499 km, 38.9° (Epoch: 17 January)

Event Time Altitude Azimuth Distance (km) Brightness Sun altitude
Rises 02:42:54 0° 252° (WSW) 4,408 - -45.3°
Reaches altitude 10° 02:47:13 10° 236° (SW) 3,063 - -44.8°
Maximum altitude 02:51:52 19° 196° (SSW) 2,124 - -44.2°
Drops below altitude 10° 02:55:39 10° 152° (SSE) 2,396 - -43.7°
Sets 02:58:30 0° 133° (SE) 3,145 - -43.3°
